STARLINK-35386 (65862 NORAD) Tracking and Keplerian Element Data

This shows tracking and keplerian element data for the satellite.

Feedback or suggestion? Click here.




ElementValue
Catalog65862
NameSTARLINK-35386
Epoch Orbit1200
Epoch Day354.02265366
Epoch Year2025
RAAN304.5485
Inclination53.1607
Eccentricity0.0001725
Argument of Perigee111.6437
Mean Anonmoly248.4748
Mean Motion15.30203558
Decay Rate0.00019015
L11 65862U 25223J 25354.02265366 .00019015 00000+0 65241-3 0 9996
L22 65862 53.1607 304.5485 0001725 111.6437 248.4748 15.30203558 12000



Live tracking and technical data element details for STARLINK-35386 (NORAD 65862). STARLINK-35386 can be tracked NOW for your location showing map with azimuth and elevation plus other details from your city location.







IsCatalogInMostPopularTable: catalog: 65862, numindb: 7
Update: records affected: 1



GetName: 65862 STARLINK-35386

Hit Count: updated at: Tue, 21 Apr 2026 20:20:29 GMT